[Date Prev][Date Next][Thread Prev][Thread Next] - [Date Index][Thread Index][Author Index]
2 Line ISS Keps - These update Fridays by 25 sec's
- Subject: [sarex] 2 Line ISS Keps - These update Fridays by 25 sec's
- From: "Dr Dave Larsen [ PhD ]" <doc@xxxxxxxxxxx>
- Date: Sun, 15 Apr 2001 12:16:43 -0700
ISS
1 25544U 98067A 01105.61959664 .00075548 00000-0 87894-3 0 8754
2 25544 51.5692 44.0225 0012338 280.4420 271.8531 15.60938584137304
----
Via the sarex mailing list at AMSAT.ORG courtesy of AMSAT-NA.
To unsubscribe, send "unsubscribe sarex" to Majordomo@amsat.org
AMSAT Home